EHI
0 0 0 0 0 0 0 0 0 0 0 0 0 0 0 0 0 0 0 0 0 0 0 0 0 0 0 0 0 0 0 0 0 0 0 0 0 0 0 0 0 0 0
0 0 0 0 0 0 0 0 0 0 0 0 0 0 0 0 0 0 0 0 0 0 0 0 0 0 0 0 0 0 0 0 0 0 0 0 0 0 0 0 0 0 0
0 0 0 0 0 0 0 0 0 0 0 0 0 0 0 0 0 0 0 0 0 0 0 0 0 0 0 0 0 0 0 0 0 0 0 0 0 0 0 0 0 0 0
0 0 0 0 0 0 0 0 0 0 0 0 0 0 0 0 0 0 0 0 0 0 0 0 0 0 0 0 0 0 0 0 0 0 0 0 0 0 0 0 0 0 0
0 0 0 0 0 0 0 0 0 0 0 0 0 0 0 0 0 0 0 0 0 0 0 0 0 0 0 0 0 0 0 0 0 0 0 0 0 0 0 0 0 0 0
0 0 0 0 0 0 0 0 0 0 0 0 0 0 0 0 0 0 0 0 0 0 0 0 0 0 0 0 0 0 0 0 0 0 0 0 0 0 0 0 0 0 0
0 0 0 0 0 0 0 0 0 0 0 0 0 0 0 0 0 0 0 0 0 0 0 0 0 0 0 0 0 0 0 0 0 0 0 0 0 0 0 0 0 0 0
0 0 0 0 0 0 0 0 0 0 0 0 0 0 0 0 0 0 0 0 0 0 0 0 0 0 0 0 0 0 0 0 0 0 0 0 0 0 0 0 0 0 0
0 0 0 0 0 0 0 0 0 0 0 0 0 0 0 0 0 0 0 0 0 0 0 0 0 0 0 0 0 0 0 0 0 0 0 0 0 0 0 0 1 0 0
0 0 0 0 0 0 0 0 0 0 0 0 0 0 0 0 0 0 0 0 0 0 0 0 0 0 0 0 0 0 0 0 0 0 0 0 0 0 0 0 0 0 0
0 0 0 0 0 0 0 0 0 0 0 0 0 0 0 0 0 0 0 0 0 0 0 0 0 0 0 0 0 0 0 0 0 0 0 0 0 0 0 0 0 0 0
0 0 0 0 0 0 0 0 0 0 0 0 0 0 0 0 0 0 0 0 0 0 0 0 0 0 0 0 0 0 0 0 0 0 0 0 0 0 0 0 0 0 0
0 0 0 0 0 0 0 0 0 0 0 0 0 0 0 0 0 0 0 0 0 0 0 0 0 0 0 0 0 0 0 0 0 0 0 0 0 0 0 0 0 0 0
0 0 0 0 0 0 0 0 0 0 0 0 0 0 0 0 0 0 0 0 0 0 0 0 0 0 0 0 0 0 0 0 0 0 0 0 0 0 0 0 0 0 0
0 0 0 0 0 0 0 0 0 0 0 0 0 0 0 0 0 0 0 0 0 0 0 0 0 0 0 0 0 0 0 0 0 0 0 0 0 0 0 0 0 0 0
0 0 0 0 0 0 0 0 0 0 0 0 0 0 0 0 0 0 0 0 0 0 0 0 0 0 0 0 0 0 0 0 0 0 0 0 0 0 0 0 0 0 0
0 0 0 0 0 0 0 0 0 0 0 0 0 0 0 0 0 0 0 0 0 0 0 0 0 0 0 0 0 0 0 0 0 0 0 0 0 0 0 0 0 0 0
0 0 0 0 0 0 0 0 0 0 0 0 0 0 0 0 0 0 0 0 0 0 0 0 0 0 0 0 0 0 0 0 0 0 0 0 0 0 0 0 0 0 0
0 0 0 0 0 0 0 0 0 0 0 0 0 0 0 0 0 0 0 0 0 0 0 0 0 0 0 0 0 0 0 0 0 0 0 0 0 0 0 0 0 0 0
0 0 0 0 0 0 0 0 0 0 0 0 0 0 0 0 0 0 0 0 0 0 0 0 0 0 0 0 0 0 0 0 0 0 0 0 0 0 0 0 0 0 0
0 0 0 0 0 0 0 0 0 0 0 0 0 0 0 0 0 0 0 0 0 0 0 0 0 0 0 0 0 0 0 0 0 0 0 0 0 0 0 0 0 0 0
0 0 0 0 0 0 0 0 0 0 0 0 0 0 0 0 0 0 0 0 0 0 0 0 0 0 0 0 0 0 0 0 0 0 0 0 0 0 0 0 0 0 0
0 0 0 0 0 0 0 0 0 0 0 0 0 0 0 0 0 0 0 0 0 0 0 0 0 0 0 0 0 0 0 0 0 0 0 0 0 0 0 0 0 0 0
0 0 0 0 0 0 0 0 0 0 0 0 0 0 0 0 0 0 0 0 0 0 0 0 0 0 0 0 0 0 0 0 0 0 0 0 0 0 0 0 0 0 0
0 0 0 0 0 0 0 0 0 0 0 0 0 0 0 0 0 0 0 0 0 0 0 0 0 0 0 0 0 0 0 0 0 0 0 0 0 0 0 0 0 0 0
0 0 0 0 0 0 0 0 0 0 0 0 0 0 0 0 0 0 0 0 0 0 0 0 0 0 0 0 0 0 0 0 0 0 0 0 0 0 0 0 0 0 0
Wind_Speed
2 1 1 2 2 2 2 2 2 2 2 2 3 3 3 3 3 2 2 5 5 5 5 4 4 4 4 5 5 5 4 5 5 5 5 5 5 4 4 4 4 4 4
2 1 1 1 1 1 1 2 2 2 1 2 2 2 2 2 2 2 2 3 5 4 4 4 4 3 3 3 4 3 4 4 4 4 4 4 4 4 3 3 3 4 3
2 2 1 1 1 1 2 2 2 2 2 2 2 2 2 2 1 1 1 1 2 4 4 4 3 3 3 2 2 3 3 4 3 4 3 3 3 3 3 3 3 3 3
2 2 1 1 1 1 1 1 2 2 2 2 1 1 1 1 1 1 1 1 1 2 3 4 4 3 3 2 1 1 2 2 3 2 3 2 3 3 3 2 2 2 2
1 1 1 1 1 1 1 1 1 1 1 2 1 1 1 1 1 1 1 1 1 1 1 3 4 4 4 3 2 1 0 1 1 1 1 1 2 2 2 2 1 1 1
1 1 1 1 1 1 1 1 1 1 1 1 1 2 2 1 1 0 0 1 1 2 2 2 2 3 4 4 2 2 1 1 1 1 0 1 1 1 1 1 1 0 0
1 1 1 1 1 1 1 1 1 1 1 1 1 2 2 1 0 0 1 1 1 1 2 2 1 1 2 4 3 3 3 2 2 2 1 1 2 1 1 1 1 0 1
2 2 2 2 2 1 1 1 1 1 0 0 1 1 1 2 2 2 1 1 1 1 2 3 2 1 1 1 3 5 4 3 3 3 3 2 3 2 2 2 2 1 2
2 2 2 2 2 2 3 2 2 2 1 1 1 2 1 2 2 2 1 1 1 1 1 1 2 2 2 1 2 4 5 5 5 4 4 4 4 4 3 3 3 2 2
2 2 2 2 3 2 3 3 2 2 3 1 1 0 1 1 1 1 2 1 1 1 1 2 2 2 2 1 2 4 5 5 5 5 5 5 5 5 5 4 4 3 3
2 3 3 3 3 3 3 3 2 2 2 2 1 1 0 1 1 2 2 2 2 2 1 2 2 1 2 2 2 3 5 5 5 5 6 5 5 5 5 4 4 4 4
2 3 3 3 3 3 3 3 3 3 3 3 2 2 2 2 2 1 2 2 3 2 2 2 2 1 1 2 3 5 5 6 6 6 6 6 5 5 5 5 5 5 5
3 4 3 3 3 3 4 3 4 4 4 4 3 3 2 2 2 2 2 2 3 2 2 2 2 2 2 1 2 5 5 6 7 7 7 7 7 6 6 4 4 4 4
4 4 4 3 3 4 4 4 3 4 3 4 4 3 2 2 2 2 2 2 2 2 2 3 2 3 2 1 3 6 4 6 7 7 7 7 7 7 7 5 5 5 5
3 4 4 4 3 4 4 4 4 4 4 4 4 4 3 3 2 2 2 3 3 4 5 3 2 2 2 2 4 3 3 6 7 7 8 7 7 7 7 6 5 5 5
4 4 4 4 4 4 4 4 4 4 4 4 4 4 4 3 3 2 3 3 3 4 5 3 3 2 3 3 5 3 4 7 7 8 8 7 7 7 7 7 5 5 5
5 5 5 5 5 4 4 4 5 5 5 5 4 5 5 4 4 3 3 3 3 3 5 4 3 3 3 3 3 3 3 4 4 8 8 8 7 7 7 7 6 5 5
5 5 5 4 5 5 4 5 6 5 6 6 6 6 6 4 5 4 4 5 4 4 4 5 4 3 4 4 3 3 4 4 4 7 8 8 8 7 8 8 6 5 5
5 5 5 5 5 5 5 5 6 6 6 7 6 7 6 6 6 5 5 5 5 4 4 4 5 4 3 3 3 4 4 4 4 5 7 7 8 8 8 9 7 5 5
5 5 5 6 6 6 6 6 6 6 6 6 6 6 7 7 7 6 6 6 5 5 4 4 4 4 3 4 3 3 4 3 4 4 5 6 7 8 9 10 8 6 6
6 5 5 5 5 6 6 6 7 6 6 6 6 6 7 8 9 8 6 5 5 5 4 4 4 4 4 4 4 3 4 3 4 3 3 4 4 4 5 8 9 7 7
5 5 6 6 6 6 9 11 8 6 6 6 6 6 6 7 9 10 11 10 8 7 7 6 6 6 6 5 4 4 4 4 4 3 3 4 3 4 5 5 8 9 8
5 6 6 6 7 8 11 12 11 7 6 6 7 6 5 6 7 6 8 10 9 11 11 8 7 7 6 5 5 5 6 6 6 3 3 5 3 5 5 6 9 9 9
5 6 6 6 7 8 11 12 11 7 6 6 7 7 7 6 6 6 6 6 6 7 8 7 7 7 6 6 7 6 6 5 4 4 3 5 4 5 5 5 9 10 9
5 5 6 6 7 8 11 11 10 5 5 6 7 7 7 7 10 10 7 6 6 6 8 9 10 9 10 10 7 4 4 4 5 4 3 3 3 4 5 5 6 9 9
5 5 5 5 6 7 10 11 10 5 6 5 5 7 10 10 11 11 7 6 7 6 5 5 6 6 5 6 8 6 5 5 4 4 3 2 2 2 4 4 4 4 5
Wind_Direction
85 65 53 46 36 41 52 50 52 58 59 54 51 54 46 39 34 26 15 39 45 55 61 65 66 81 96 90 99 89 87 87 88 87 86 83 76 86 95 89 86 96 101
107 97 71 48 31 34 48 64 55 57 59 56 50 49 50 41 38 30 14 17 31 43 50 57 59 56 75 97 90 103 87 88 92 93 92 89 80 83 90 94 90 83 94
115 113 97 68 24 27 48 60 53 53 52 47 37 30 39 40 37 33 23 14 0 19 32 36 36 36 39 70 95 91 102 83 86 92 90 90 89 85 77 78 84 83 78
113 126 116 103 46 52 57 71 66 57 44 29 18 11 16 16 16 20 36 39 24 7 6 18 17 14 14 27 57 90 103 110 76 81 85 79 86 87 79 65 67 79 76
105 121 136 142 103 85 63 72 64 74 69 32 358 3 8 360 337 17 28 31 36 29 7 2 7 8 7 10 23 14 78 141 126 67 107 100 91 78 67 50 44 68 58
125 115 136 134 125 106 82 67 69 64 111 72 18 5 345 326 318 358 346 7 28 36 26 7 1 358 6 5 2 344 324 283 213 214 281 178 134 100 42 2 36 36 318
166 152 144 149 138 143 147 115 99 82 60 64 51 14 347 339 358 345 7 26 21 26 34 18 15 14 351 354 349 342 329 313 272 245 259 243 196 203 229 258 262 307 303
190 182 174 179 171 153 146 143 108 93 360 83 99 72 357 331 344 343 341 341 357 15 28 16 10 17 356 343 355 358 340 315 303 267 250 272 241 226 235 247 253 270 294
205 202 192 191 184 176 186 198 172 157 177 281 135 140 159 222 300 298 295 305 342 2 356 350 358 354 347 345 330 343 343 338 319 298 262 266 258 244 245 250 252 262 285
214 214 204 207 201 195 195 207 200 186 168 203 277 307 197 187 208 274 292 292 302 304 306 330 337 332 324 316 334 342 339 335 329 318 293 277 272 251 248 251 250 258 272
218 216 209 209 213 205 204 203 205 206 190 193 209 237 251 299 244 213 254 266 287 277 280 290 286 297 305 312 310 333 339 333 331 328 329 301 297 273 260 256 255 262 268
227 218 215 213 222 215 208 209 205 207 210 203 212 217 212 211 221 223 242 256 265 273 280 272 263 261 283 306 318 340 337 335 331 326 320 316 304 307 290 269 262 263 264
229 223 220 217 221 223 216 208 205 209 211 208 210 225 235 236 227 235 238 258 274 286 272 263 255 252 272 292 306 331 323 325 323 318 312 311 309 308 298 290 282 276 273
226 224 221 221 225 223 221 213 213 214 214 216 223 224 235 240 234 229 225 222 264 276 261 256 265 242 247 268 302 318 304 311 311 309 307 305 314 307 301 285 287 285 285
231 223 219 219 224 227 220 211 218 218 215 221 224 225 235 242 237 238 230 213 215 243 252 241 246 248 255 280 302 295 289 295 299 299 299 297 306 303 304 284 286 285 286
223 222 224 222 222 229 226 215 221 219 217 225 225 220 229 234 234 232 226 232 235 234 250 241 239 257 263 280 290 292 282 292 292 294 292 293 292 298 294 282 269 275 281
219 218 222 223 222 228 228 220 224 216 218 226 229 226 232 230 230 227 224 226 234 235 250 267 261 260 253 259 283 281 279 269 271 282 285 283 281 290 290 287 266 268 277
224 222 219 224 226 227 227 223 224 221 219 222 225 226 233 231 233 227 223 228 232 233 239 258 266 260 258 247 252 264 279 276 267 277 278 278 278 281 285 288 269 267 275
225 226 219 223 228 226 230 231 227 224 224 225 223 223 227 226 232 232 226 229 232 237 238 240 254 257 264 252 253 272 275 273 272 271 272 273 275 280 280 286 272 267 269
222 224 229 226 231 230 234 235 231 228 224 228 230 229 226 226 229 230 231 230 229 229 234 236 243 246 250 247 239 254 271 268 272 283 274 276 275 281 278 283 274 265 261
225 224 230 233 234 232 231 231 227 227 224 226 230 233 234 236 237 235 233 226 221 224 228 235 238 244 239 233 235 243 263 273 274 270 270 268 269 269 271 271 265 255 254
225 226 231 233 236 239 238 236 233 227 227 226 230 236 240 242 245 245 246 241 231 221 220 230 239 234 236 236 235 245 252 266 269 249 253 269 265 273 272 252 252 253 253
226 230 233 231 235 241 238 237 237 231 227 226 226 229 237 241 244 242 246 249 250 250 239 232 232 235 233 230 230 242 247 252 257 248 254 264 258 265 273 264 257 254 255
227 229 233 234 237 241 238 237 236 234 228 228 227 225 229 235 236 237 235 239 245 250 252 248 240 240 239 228 225 232 242 260 275 257 236 254 252 260 271 264 252 247 250
235 234 235 232 234 242 239 238 237 226 227 230 230 228 227 230 237 238 232 236 246 254 259 257 257 254 253 252 239 224 229 243 264 261 229 239 260 275 270 262 247 243 247
236 237 242 238 234 240 239 240 237 225 224 229 231 230 234 235 236 237 227 225 238 244 243 253 257 260 254 248 246 228 217 230 249 260 236 229 253 278 280 261 233 223 233